owner,sensor,date,latitude,longitude,air_pressure(mBar),qcFlag 
TABS,ioos:station:wmo:42043:1,2013-05-01T00:00:00Z,28.9818,-94.9186,1008.26,11111222 
TABS,ioos:station:wmo:42043:1,2013-05-01T00:30:00Z,28.9818,-94.9186,1008.23,11111222 
TABS,ioos:station:wmo:42043:1,2013-05-01T01:00:00Z,28.9818,-94.9186,1008.38,11111222 
TABS,ioos:station:wmo:42043:1,2013-05-01T01:30:00Z,28.9818,-94.9186,1008.7,11111222 
TABS,ioos:station:wmo:42043:1,2013-05-01T02:00:00Z,28.9818,-94.9186,1009.17,11111222 
TABS,ioos:station:wmo:42043:1,2013-05-01T02:30:00Z,28.9818,-94.9186,1009.35,11111222 
TABS,ioos:station:wmo:42043:1,2013-05-01T03:00:00Z,28.9818,-94.9186,1009.65,11111222 
TABS,ioos:station:wmo:42043:1,2013-05-01T03:30:00Z,28.9818,-94.9186,1009.74,11111222 
TABS,ioos:station:wmo:42043:1,2013-05-01T04:00:00Z,28.9818,-94.9186,1009.71,11111222 
TABS,ioos:station:wmo:42043:1,2013-05-01T04:30:00Z,28.9818,-94.9186,1010.07,11111222 
TABS,ioos:station:wmo:42043:1,2013-05-01T05:00:00Z,28.9818,-94.9186,1009.84,11111222 
TABS,ioos:station:wmo:42043:1,2013-05-01T05:30:00Z,28.9818,-94.9186,1009.66,11111222 
TABS,ioos:station:wmo:42043:1,2013-05-01T06:00:00Z,28.9818,-94.9186,1009.49,11111222 
TABS,ioos:station:wmo:42043:1,2013-05-01T06:30:00Z,28.9818,-94.9186,1009.28,11111222 
TABS,ioos:station:wmo:42043:1,2013-05-01T07:00:00Z,28.9818,-94.9186,1009.16,11111222 
TABS,ioos:station:wmo:42043:1,2013-05-01T07:30:00Z,28.9818,-94.9186,1009.15,11111222 
TABS,ioos:station:wmo:42043:1,2013-05-01T08:00:00Z,28.9818,-94.9186,1009.19,11111222 
TABS,ioos:station:wmo:42043:1,2013-05-01T08:30:00Z,28.9818,-94.9186,1009.28,11111222 
TABS,ioos:station:wmo:42043:1,2013-05-01T09:00:00Z,28.9818,-94.9186,1009.45,11111222 
TABS,ioos:station:wmo:42043:1,2013-05-01T09:30:00Z,28.9818,-94.9186,1009.23,11111222 
TABS,ioos:station:wmo:42043:1,2013-05-01T10:00:00Z,28.9818,-94.9186,1009.05,11111222 
TABS,ioos:station:wmo:42043:1,2013-05-01T10:30:00Z,28.9818,-94.9186,1009.43,11111222 
TABS,ioos:station:wmo:42043:1,2013-05-01T11:00:00Z,28.9818,-94.9186,1009.65,11111222 
TABS,ioos:station:wmo:42043:1,2013-05-01T11:30:00Z,28.9818,-94.9186,1009.78,11111222 
TABS,ioos:station:wmo:42043:1,2013-05-01T12:00:00Z,28.9818,-94.9186,1010.31,11111222 
TABS,ioos:station:wmo:42043:1,2013-05-01T12:30:00Z,28.9818,-94.9186,1010.34,11111222 
TABS,ioos:station:wmo:42043:1,2013-05-01T13:00:00Z,28.9818,-94.9186,1010.72,11111222 
TABS,ioos:station:wmo:42043:1,2013-05-01T13:30:00Z,28.9818,-94.9186,1010.99,11111222 
TABS,ioos:station:wmo:42043:1,2013-05-01T14:00:00Z,28.9818,-94.9186,1011.19,11111222 
TABS,ioos:station:wmo:42043:1,2013-05-01T14:30:00Z,28.9818,-94.9186,1011.42,11111222 
TABS,ioos:station:wmo:42043:1,2013-05-01T15:00:00Z,28.9818,-94.9186,1011.75,11111222 
TABS,ioos:station:wmo:42043:1,2013-05-01T15:30:00Z,28.9818,-94.9186,1011.95,11111222 
TABS,ioos:station:wmo:42043:1,2013-05-01T16:00:00Z,28.9818,-94.9186,1012.02,11111222 
TABS,ioos:station:wmo:42043:1,2013-05-01T16:30:00Z,28.9818,-94.9186,1012.2,11111222 
TABS,ioos:station:wmo:42043:1,2013-05-01T17:00:00Z,28.9818,-94.9186,1011.99,11111222 
TABS,ioos:station:wmo:42043:1,2013-05-01T17:30:00Z,28.9818,-94.9186,1011.75,11111222 
TABS,ioos:station:wmo:42043:1,2013-05-01T18:00:00Z,28.9818,-94.9186,1011.79,11111222 
TABS,ioos:station:wmo:42043:1,2013-05-01T18:30:00Z,28.9818,-94.9186,1011.62,11111222 
TABS,ioos:station:wmo:42043:1,2013-05-01T19:00:00Z,28.9818,-94.9186,1011.25,11111222 
TABS,ioos:station:wmo:42043:1,2013-05-01T19:30:00Z,28.9818,-94.9186,1011.13,11111222 
TABS,ioos:station:wmo:42043:1,2013-05-01T20:00:00Z,28.9818,-94.9186,1010.87,11111222 
TABS,ioos:station:wmo:42043:1,2013-05-01T20:30:00Z,28.9818,-94.9186,1010.63,11111222 
TABS,ioos:station:wmo:42043:1,2013-05-01T21:00:00Z,28.9818,-94.9186,1010.33,11111222 
TABS,ioos:station:wmo:42043:1,2013-05-01T21:30:00Z,28.9818,-94.9186,1010.43,11111222 
TABS,ioos:station:wmo:42043:1,2013-05-01T22:00:00Z,28.9818,-94.9186,1010.73,11111222 
TABS,ioos:station:wmo:42043:1,2013-05-01T22:30:00Z,28.9818,-94.9186,1010.83,11111222 
TABS,ioos:station:wmo:42043:1,2013-05-01T23:00:00Z,28.9818,-94.9186,1010.76,11111222 
TABS,ioos:station:wmo:42043:1,2013-05-01T23:30:00Z,28.9818,-94.9186,1010.57,11111222 
TABS,ioos:station:wmo:42043:1,2013-05-02T00:00:00Z,28.9818,-94.9186,1010.35,11111222 
TABS,ioos:station:wmo:42043:1,2013-05-02T00:30:00Z,28.9818,-94.9186,1010.52,11111222 
TABS,ioos:station:wmo:42043:1,2013-05-02T01:00:00Z,28.9818,-94.9186,1010.95,11111222 
TABS,ioos:station:wmo:42043:1,2013-05-02T01:30:00Z,28.9818,-94.9186,1011.16,11111222 
TABS,ioos:station:wmo:42043:1,2013-05-02T02:00:00Z,28.9818,-94.9186,1011.16,11111222 
TABS,ioos:station:wmo:42043:1,2013-05-02T02:30:00Z,28.9818,-94.9186,1011.08,11111222 
TABS,ioos:station:wmo:42043:1,2013-05-02T03:00:00Z,28.9818,-94.9186,1011.31,11111222 
TABS,ioos:station:wmo:42043:1,2013-05-02T03:30:00Z,28.9818,-94.9186,1011.82,11111222 
TABS,ioos:station:wmo:42043:1,2013-05-02T04:00:00Z,28.9818,-94.9186,1011.86,11111222 
TABS,ioos:station:wmo:42043:1,2013-05-02T04:30:00Z,28.9818,-94.9186,1011.67,11111222 
TABS,ioos:station:wmo:42043:1,2013-05-02T05:00:00Z,28.9818,-94.9186,1012.0,11111222 
TABS,ioos:station:wmo:42043:1,2013-05-02T05:30:00Z,28.9818,-94.9186,1011.96,11111222 
TABS,ioos:station:wmo:42043:1,2013-05-02T06:00:00Z,28.9818,-94.9186,1012.38,11111222 
TABS,ioos:station:wmo:42043:1,2013-05-02T06:30:00Z,28.9818,-94.9186,1012.47,11111222 
TABS,ioos:station:wmo:42043:1,2013-05-02T07:00:00Z,28.9818,-94.9186,1012.51,11111222 
TABS,ioos:station:wmo:42043:1,2013-05-02T07:30:00Z,28.9818,-94.9186,1012.37,11111222 
TABS,ioos:station:wmo:42043:1,2013-05-02T08:00:00Z,28.9818,-94.9186,1012.15,11111222 
TABS,ioos:station:wmo:42043:1,2013-05-02T08:30:00Z,28.9818,-94.9186,1012.03,11111222 
TABS,ioos:station:wmo:42043:1,2013-05-02T09:00:00Z,28.9818,-94.9186,1012.31,11111222 
TABS,ioos:station:wmo:42043:1,2013-05-02T09:30:00Z,28.9818,-94.9186,1012.51,11111222 
TABS,ioos:station:wmo:42043:1,2013-05-02T10:00:00Z,28.9818,-94.9186,1012.59,11111222 
TABS,ioos:station:wmo:42043:1,2013-05-02T10:30:00Z,28.9818,-94.9186,1012.86,11111222 
TABS,ioos:station:wmo:42043:1,2013-05-02T11:00:00Z,28.9818,-94.9186,1013.13,11111222 
TABS,ioos:station:wmo:42043:1,2013-05-02T11:30:00Z,28.9818,-94.9186,1012.98,11111222 
TABS,ioos:station:wmo:42043:1,2013-05-02T12:00:00Z,28.9818,-94.9186,1012.96,11111222 
TABS,ioos:station:wmo:42043:1,2013-05-02T12:30:00Z,28.9818,-94.9186,1012.94,11111222 
TABS,ioos:station:wmo:42043:1,2013-05-02T13:00:00Z,28.9818,-94.9186,1013.02,11111222 
TABS,ioos:station:wmo:42043:1,2013-05-02T13:30:00Z,28.9818,-94.9186,1012.99,11111222 
TABS,ioos:station:wmo:42043:1,2013-05-02T14:00:00Z,28.9818,-94.9186,1012.89,11111222 
TABS,ioos:station:wmo:42043:1,2013-05-02T14:30:00Z,28.9818,-94.9186,1013.42,11111222 
TABS,ioos:station:wmo:42043:1,2013-05-02T15:00:00Z,28.9818,-94.9186,1014.46,11111222 
TABS,ioos:station:wmo:42043:1,2013-05-02T15:30:00Z,28.9818,-94.9186,1015.5,11111222 
TABS,ioos:station:wmo:42043:1,2013-05-02T16:00:00Z,28.9818,-94.9186,1016.18,11111222 
TABS,ioos:station:wmo:42043:1,2013-05-02T16:30:00Z,28.9818,-94.9186,1016.21,11111222 
TABS,ioos:station:wmo:42043:1,2013-05-02T17:00:00Z,28.9818,-94.9186,1016.16,11111222 
TABS,ioos:station:wmo:42043:1,2013-05-02T17:30:00Z,28.9818,-94.9186,1016.51,11111222 
TABS,ioos:station:wmo:42043:1,2013-05-03T00:00:00Z,28.9818,-94.9186,1016.93,11111222 
TABS,ioos:station:wmo:42043:1,2013-05-03T00:30:00Z,28.9818,-94.9186,1016.99,11111222 
TABS,ioos:station:wmo:42043:1,2013-05-03T01:00:00Z,28.9818,-94.9186,1017.34,11111222 
TABS,ioos:station:wmo:42043:1,2013-05-03T01:30:00Z,28.9818,-94.9186,1017.61,11111222 
TABS,ioos:station:wmo:42043:1,2013-05-03T02:00:00Z,28.9818,-94.9186,1017.9,11111222 
TABS,ioos:station:wmo:42043:1,2013-05-03T02:30:00Z,28.9818,-94.9186,1018.85,11111222 
TABS,ioos:station:wmo:42043:1,2013-05-03T03:00:00Z,28.9818,-94.9186,1019.1,11111222 
TABS,ioos:station:wmo:42043:1,2013-05-03T03:30:00Z,28.9818,-94.9186,1019.61,11111222 
TABS,ioos:station:wmo:42043:1,2013-05-03T04:00:00Z,28.9818,-94.9186,1019.87,11111222 
TABS,ioos:station:wmo:42043:1,2013-05-03T04:30:00Z,28.9818,-94.9186,1019.76,11111222 
TABS,ioos:station:wmo:42043:1,2013-05-03T05:00:00Z,28.9818,-94.9186,1019.73,11111222 
TABS,ioos:station:wmo:42043:1,2013-05-03T05:30:00Z,28.9818,-94.9186,1019.6,11111222 
TABS,ioos:station:wmo:42043:1,2013-05-03T06:00:00Z,28.9818,-94.9186,1019.63,11111222 
TABS,ioos:station:wmo:42043:1,2013-05-03T06:30:00Z,28.9818,-94.9186,1019.26,11111222 
TABS,ioos:station:wmo:42043:1,2013-05-03T07:00:00Z,28.9818,-94.9186,1019.34,11111222 
TABS,ioos:station:wmo:42043:1,2013-05-03T07:30:00Z,28.9818,-94.9186,1018.89,11111222 
TABS,ioos:station:wmo:42043:1,2013-05-03T08:00:00Z,28.9818,-94.9186,1018.59,11111222 
TABS,ioos:station:wmo:42043:1,2013-05-03T08:30:00Z,28.9818,-94.9186,1018.8,11111222 
TABS,ioos:station:wmo:42043:1,2013-05-03T09:00:00Z,28.9818,-94.9186,1018.93,11111222 
TABS,ioos:station:wmo:42043:1,2013-05-03T09:30:00Z,28.9818,-94.9186,1019.1,11111222 
TABS,ioos:station:wmo:42043:1,2013-05-03T10:00:00Z,28.9818,-94.9186,1019.44,11111222 
TABS,ioos:station:wmo:42043:1,2013-05-03T10:30:00Z,28.9818,-94.9186,1019.22,11111222 
TABS,ioos:station:wmo:42043:1,2013-05-03T11:00:00Z,28.9818,-94.9186,1019.4,11111222 
TABS,ioos:station:wmo:42043:1,2013-05-03T11:30:00Z,28.9818,-94.9186,1019.69,11111222 
TABS,ioos:station:wmo:42043:1,2013-05-03T12:00:00Z,28.9818,-94.9186,1020.04,11111222 
TABS,ioos:station:wmo:42043:1,2013-05-03T12:30:00Z,28.9818,-94.9186,1020.25,11111222 
TABS,ioos:station:wmo:42043:1,2013-05-03T13:00:00Z,28.9818,-94.9186,1019.93,11111222 
TABS,ioos:station:wmo:42043:1,2013-05-03T13:30:00Z,28.9818,-94.9186,1020.01,11111222 
TABS,ioos:station:wmo:42043:1,2013-05-03T14:00:00Z,28.9818,-94.9186,1020.15,11111222 
TABS,ioos:station:wmo:42043:1,2013-05-03T14:30:00Z,28.9818,-94.9186,1020.11,11111222 
TABS,ioos:station:wmo:42043:1,2013-05-03T15:00:00Z,28.9818,-94.9186,1020.43,11111222 
TABS,ioos:station:wmo:42043:1,2013-05-03T15:30:00Z,28.9818,-94.9186,1020.32,11111222 
TABS,ioos:station:wmo:42043:1,2013-05-03T16:00:00Z,28.9818,-94.9186,1020.61,11111222 
TABS,ioos:station:wmo:42043:1,2013-05-03T16:30:00Z,28.9818,-94.9186,1020.81,11111222 
TABS,ioos:station:wmo:42043:1,2013-05-03T17:00:00Z,28.9818,-94.9186,1020.58,11111222 
TABS,ioos:station:wmo:42043:1,2013-05-03T17:30:00Z,28.9818,-94.9186,1020.3,11111222 
TABS,ioos:station:wmo:42043:1,2013-05-03T18:00:00Z,28.9818,-94.9186,1020.36,11111222 
TABS,ioos:station:wmo:42043:1,2013-05-03T18:30:00Z,28.9818,-94.9186,1019.93,11111222 
TABS,ioos:station:wmo:42043:1,2013-05-03T19:00:00Z,28.9818,-94.9186,1019.58,11111222 
TABS,ioos:station:wmo:42043:1,2013-05-03T19:30:00Z,28.9818,-94.9186,1018.89,11111222 
TABS,ioos:station:wmo:42043:1,2013-05-03T20:00:00Z,28.9818,-94.9186,1018.47,11111222 
TABS,ioos:station:wmo:42043:1,2013-05-03T20:30:00Z,28.9818,-94.9186,1018.02,11111222 
TABS,ioos:station:wmo:42043:1,2013-05-03T21:00:00Z,28.9818,-94.9186,1017.47,11111222 
TABS,ioos:station:wmo:42043:1,2013-05-03T21:30:00Z,28.9818,-94.9186,1017.67,11111222 
TABS,ioos:station:wmo:42043:1,2013-05-03T22:00:00Z,28.9818,-94.9186,1017.09,11111222 
TABS,ioos:station:wmo:42043:1,2013-05-03T22:30:00Z,28.9818,-94.9186,1017.17,11111222 
TABS,ioos:station:wmo:42043:1,2013-05-03T23:00:00Z,28.9818,-94.9186,1017.15,11111222 
TABS,ioos:station:wmo:42043:1,2013-05-03T23:30:00Z,28.9818,-94.9186,1017.34,11111222 
TABS,ioos:station:wmo:42043:1,2013-05-04T00:00:00Z,28.9818,-94.9186,1017.16,11111222 
TABS,ioos:station:wmo:42043:1,2013-05-04T00:30:00Z,28.9818,-94.9186,1017.17,11111222 
TABS,ioos:station:wmo:42043:1,2013-05-04T01:00:00Z,28.9818,-94.9186,1017.56,11111222 
TABS,ioos:station:wmo:42043:1,2013-05-04T01:30:00Z,28.9818,-94.9186,1017.97,11111222 
TABS,ioos:station:wmo:42043:1,2013-05-04T02:00:00Z,28.9818,-94.9186,1018.31,11111222 
TABS,ioos:station:wmo:42043:1,2013-05-04T02:30:00Z,28.9818,-94.9186,1018.73,11111222 
TABS,ioos:station:wmo:42043:1,2013-05-04T03:00:00Z,28.9818,-94.9186,1019.43,11111222 
TABS,ioos:station:wmo:42043:1,2013-05-04T03:30:00Z,28.9818,-94.9186,1019.38,11111222 
TABS,ioos:station:wmo:42043:1,2013-05-04T04:00:00Z,28.9818,-94.9186,1019.4,11111222 
TABS,ioos:station:wmo:42043:1,2013-05-04T04:30:00Z,28.9818,-94.9186,1019.31,11111222 
TABS,ioos:station:wmo:42043:1,2013-05-04T05:00:00Z,28.9818,-94.9186,1018.98,11111222 
TABS,ioos:station:wmo:42043:1,2013-05-04T05:30:00Z,28.9818,-94.9186,1019.16,11111222 
TABS,ioos:station:wmo:42043:1,2013-05-04T06:00:00Z,28.9818,-94.9186,1018.85,11111222 
TABS,ioos:station:wmo:42043:1,2013-05-04T06:30:00Z,28.9818,-94.9186,1018.53,11111222 
TABS,ioos:station:wmo:42043:1,2013-05-04T07:00:00Z,28.9818,-94.9186,1017.85,11111222 
TABS,ioos:station:wmo:42043:1,2013-05-04T07:30:00Z,28.9818,-94.9186,1017.3,11111222 
TABS,ioos:station:wmo:42043:1,2013-05-04T08:00:00Z,28.9818,-94.9186,1017.33,11111222 
TABS,ioos:station:wmo:42043:1,2013-05-04T08:30:00Z,28.9818,-94.9186,1017.19,11111222 
TABS,ioos:station:wmo:42043:1,2013-05-04T09:00:00Z,28.9818,-94.9186,1016.96,11111222 
TABS,ioos:station:wmo:42043:1,2013-05-04T09:30:00Z,28.9818,-94.9186,1016.68,11111222 
TABS,ioos:station:wmo:42043:1,2013-05-04T10:00:00Z,28.9818,-94.9186,1016.79,11111222 
TABS,ioos:station:wmo:42043:1,2013-05-04T10:30:00Z,28.9818,-94.9186,1016.87,11111222 
TABS,ioos:station:wmo:42043:1,2013-05-04T11:00:00Z,28.9818,-94.9186,1016.8,11111222 
TABS,ioos:station:wmo:42043:1,2013-05-04T11:30:00Z,28.9818,-94.9186,1016.99,11111222 
TABS,ioos:station:wmo:42043:1,2013-05-04T12:00:00Z,28.9818,-94.9186,1017.31,11111222 
TABS,ioos:station:wmo:42043:1,2013-05-04T12:30:00Z,28.9818,-94.9186,1017.31,11111222 
TABS,ioos:station:wmo:42043:1,2013-05-04T13:00:00Z,28.9818,-94.9186,1017.43,11111222 
TABS,ioos:station:wmo:42043:1,2013-05-04T13:30:00Z,28.9818,-94.9186,1017.53,11111222 
TABS,ioos:station:wmo:42043:1,2013-05-04T14:00:00Z,28.9818,-94.9186,1017.56,11111222 
TABS,ioos:station:wmo:42043:1,2013-05-04T14:30:00Z,28.9818,-94.9186,1017.72,11111222 
TABS,ioos:station:wmo:42043:1,2013-05-04T15:00:00Z,28.9818,-94.9186,1017.61,11111222 
TABS,ioos:station:wmo:42043:1,2013-05-04T15:30:00Z,28.9818,-94.9186,1017.76,11111222 
TABS,ioos:station:wmo:42043:1,2013-05-04T16:00:00Z,28.9818,-94.9186,1017.73,11111222 
TABS,ioos:station:wmo:42043:1,2013-05-04T16:30:00Z,28.9818,-94.9186,1017.46,11111222 
TABS,ioos:station:wmo:42043:1,2013-05-04T17:00:00Z,28.9818,-94.9186,1016.98,11111222 
TABS,ioos:station:wmo:42043:1,2013-05-04T17:30:00Z,28.9818,-94.9186,1016.49,11111222 
TABS,ioos:station:wmo:42043:1,2013-05-04T18:00:00Z,28.9818,-94.9186,1016.05,11111222 
TABS,ioos:station:wmo:42043:1,2013-05-04T18:30:00Z,28.9818,-94.9186,1015.58,11111222 
TABS,ioos:station:wmo:42043:1,2013-05-04T19:00:00Z,28.9818,-94.9186,1015.27,11111222 
TABS,ioos:station:wmo:42043:1,2013-05-04T19:30:00Z,28.9818,-94.9186,1014.92,11111222 
TABS,ioos:station:wmo:42043:1,2013-05-04T20:00:00Z,28.9818,-94.9186,1014.48,11111222 
TABS,ioos:station:wmo:42043:1,2013-05-04T20:30:00Z,28.9818,-94.9186,1013.6,11111222 
TABS,ioos:station:wmo:42043:1,2013-05-04T21:00:00Z,28.9818,-94.9186,1013.31,11111222 
TABS,ioos:station:wmo:42043:1,2013-05-04T21:30:00Z,28.9818,-94.9186,1012.83,11111222 
TABS,ioos:station:wmo:42043:1,2013-05-04T22:00:00Z,28.9818,-94.9186,1012.92,11111222 
TABS,ioos:station:wmo:42043:1,2013-05-04T22:30:00Z,28.9818,-94.9186,1012.38,11111222 
TABS,ioos:station:wmo:42043:1,2013-05-04T23:00:00Z,28.9818,-94.9186,1012.52,11111222 
TABS,ioos:station:wmo:42043:1,2013-05-04T23:30:00Z,28.9818,-94.9186,1012.12,11111222 
TABS,ioos:station:wmo:42043:1,2013-05-05T00:00:00Z,28.9818,-94.9186,1012.47,11111222 
TABS,ioos:station:wmo:42043:1,2013-05-05T00:30:00Z,28.9818,-94.9186,1012.61,11111222 
TABS,ioos:station:wmo:42043:1,2013-05-05T01:00:00Z,28.9818,-94.9186,1012.67,11111222 
TABS,ioos:station:wmo:42043:1,2013-05-05T01:30:00Z,28.9818,-94.9186,1012.77,11111222 
TABS,ioos:station:wmo:42043:1,2013-05-05T02:00:00Z,28.9818,-94.9186,1013.0,11111222 
TABS,ioos:station:wmo:42043:1,2013-05-05T02:30:00Z,28.9818,-94.9186,1013.12,11111222 
TABS,ioos:station:wmo:42043:1,2013-05-05T03:00:00Z,28.9818,-94.9186,1013.35,11111222 
TABS,ioos:station:wmo:42043:1,2013-05-05T03:30:00Z,28.9818,-94.9186,1013.6,11111222 
TABS,ioos:station:wmo:42043:1,2013-05-05T04:00:00Z,28.9818,-94.9186,1013.86,11111222 
TABS,ioos:station:wmo:42043:1,2013-05-05T04:30:00Z,28.9818,-94.9186,1013.84,11111222 
TABS,ioos:station:wmo:42043:1,2013-05-05T05:00:00Z,28.9818,-94.9186,1013.94,11111222 
TABS,ioos:station:wmo:42043:1,2013-05-05T05:30:00Z,28.9818,-94.9186,1013.73,11111222 
TABS,ioos:station:wmo:42043:1,2013-05-05T06:00:00Z,28.9818,-94.9186,1014.02,11111222 
TABS,ioos:station:wmo:42043:1,2013-05-05T06:30:00Z,28.9818,-94.9186,1013.8,11111222 
TABS,ioos:station:wmo:42043:1,2013-05-05T07:00:00Z,28.9818,-94.9186,1013.54,11111222 
TABS,ioos:station:wmo:42043:1,2013-05-05T07:30:00Z,28.9818,-94.9186,1013.77,11111222 
TABS,ioos:station:wmo:42043:1,2013-05-05T08:00:00Z,28.9818,-94.9186,1014.1,11111222 
TABS,ioos:station:wmo:42043:1,2013-05-05T08:30:00Z,28.9818,-94.9186,1014.6,11111222 
TABS,ioos:station:wmo:42043:1,2013-05-05T09:00:00Z,28.9818,-94.9186,1014.61,11111222 
TABS,ioos:station:wmo:42043:1,2013-05-05T09:30:00Z,28.9818,-94.9186,1014.93,11111222 
TABS,ioos:station:wmo:42043:1,2013-05-05T10:00:00Z,28.9818,-94.9186,1014.86,11111222 
TABS,ioos:station:wmo:42043:1,2013-05-05T10:30:00Z,28.9818,-94.9186,1015.21,11111222 
TABS,ioos:station:wmo:42043:1,2013-05-05T11:00:00Z,28.9818,-94.9186,1015.56,11111222 
TABS,ioos:station:wmo:42043:1,2013-05-05T11:30:00Z,28.9818,-94.9186,1015.6,11111222 
TABS,ioos:station:wmo:42043:1,2013-05-05T12:00:00Z,28.9818,-94.9186,1016.13,11111222 
TABS,ioos:station:wmo:42043:1,2013-05-05T12:30:00Z,28.9818,-94.9186,1016.71,11111222 
TABS,ioos:station:wmo:42043:1,2013-05-05T13:00:00Z,28.9818,-94.9186,1016.95,11111222 
TABS,ioos:station:wmo:42043:1,2013-05-05T13:30:00Z,28.9818,-94.9186,1017.27,11111222 
TABS,ioos:station:wmo:42043:1,2013-05-05T14:00:00Z,28.9818,-94.9186,1017.81,11111222 
TABS,ioos:station:wmo:42043:1,2013-05-05T14:30:00Z,28.9818,-94.9186,1017.94,11111222 
TABS,ioos:station:wmo:42043:1,2013-05-05T15:00:00Z,28.9818,-94.9186,1018.01,11111222 
TABS,ioos:station:wmo:42043:1,2013-05-05T15:30:00Z,28.9818,-94.9186,1018.23,11111222 
TABS,ioos:station:wmo:42043:1,2013-05-05T16:00:00Z,28.9818,-94.9186,1018.55,11111222 
TABS,ioos:station:wmo:42043:1,2013-05-05T16:30:00Z,28.9818,-94.9186,1018.37,11111222 
TABS,ioos:station:wmo:42043:1,2013-05-05T17:00:00Z,28.9818,-94.9186,1018.41,11111222 
TABS,ioos:station:wmo:42043:1,2013-05-05T17:30:00Z,28.9818,-94.9186,1018.18,11111222 
TABS,ioos:station:wmo:42043:1,2013-05-05T18:00:00Z,28.9818,-94.9186,1017.73,11111222 
TABS,ioos:station:wmo:42043:1,2013-05-05T18:30:00Z,28.9818,-94.9186,1017.54,11111222 
TABS,ioos:station:wmo:42043:1,2013-05-05T19:00:00Z,28.9818,-94.9186,1017.25,11111222 
TABS,ioos:station:wmo:42043:1,2013-05-05T19:30:00Z,28.9818,-94.9186,1016.93,11111222 
TABS,ioos:station:wmo:42043:1,2013-05-05T20:00:00Z,28.9818,-94.9186,1016.36,11111222 
TABS,ioos:station:wmo:42043:1,2013-05-05T20:30:00Z,28.9818,-94.9186,1016.22,11111222 
TABS,ioos:station:wmo:42043:1,2013-05-05T21:00:00Z,28.9818,-94.9186,1016.02,11111222 
TABS,ioos:station:wmo:42043:1,2013-05-05T21:30:00Z,28.9818,-94.9186,1015.77,11111222 
TABS,ioos:station:wmo:42043:1,2013-05-05T22:00:00Z,28.9818,-94.9186,1015.85,11111222 
TABS,ioos:station:wmo:42043:1,2013-05-05T22:30:00Z,28.9818,-94.9186,1015.83,11111222 
TABS,ioos:station:wmo:42043:1,2013-05-05T23:00:00Z,28.9818,-94.9186,1015.75,11111222 
TABS,ioos:station:wmo:42043:1,2013-05-05T23:30:00Z,28.9818,-94.9186,1015.8,11111222 
TABS,ioos:station:wmo:42043:1,2013-05-06T00:00:00Z,28.9818,-94.9186,1016.06,11111222 
TABS,ioos:station:wmo:42043:1,2013-05-06T00:30:00Z,28.9818,-94.9186,1016.25,11111222 
TABS,ioos:station:wmo:42043:1,2013-05-06T01:00:00Z,28.9818,-94.9186,1016.46,11111222 
TABS,ioos:station:wmo:42043:1,2013-05-06T01:30:00Z,28.9818,-94.9186,1016.96,11111222 
TABS,ioos:station:wmo:42043:1,2013-05-06T02:00:00Z,28.9818,-94.9186,1017.09,11111222 
TABS,ioos:station:wmo:42043:1,2013-05-06T02:30:00Z,28.9818,-94.9186,1017.61,11111222 
TABS,ioos:station:wmo:42043:1,2013-05-06T03:00:00Z,28.9818,-94.9186,1017.97,11111222 
TABS,ioos:station:wmo:42043:1,2013-05-06T03:30:00Z,28.9818,-94.9186,1017.94,11111222 
TABS,ioos:station:wmo:42043:1,2013-05-06T04:00:00Z,28.9818,-94.9186,1018.14,11111222 
TABS,ioos:station:wmo:42043:1,2013-05-06T04:30:00Z,28.9818,-94.9186,1018.15,11111222 
TABS,ioos:station:wmo:42043:1,2013-05-06T05:00:00Z,28.9818,-94.9186,1018.39,11111222 
TABS,ioos:station:wmo:42043:1,2013-05-06T05:30:00Z,28.9818,-94.9186,1018.36,11111222 
TABS,ioos:station:wmo:42043:1,2013-05-06T06:00:00Z,28.9818,-94.9186,1018.3,11111222 
TABS,ioos:station:wmo:42043:1,2013-05-06T06:30:00Z,28.9818,-94.9186,1018.04,11111222 
TABS,ioos:station:wmo:42043:1,2013-05-06T07:00:00Z,28.9818,-94.9186,1017.93,11111222 
TABS,ioos:station:wmo:42043:1,2013-05-06T07:30:00Z,28.9818,-94.9186,1017.85,11111222 
TABS,ioos:station:wmo:42043:1,2013-05-06T08:00:00Z,28.9818,-94.9186,1017.81,11111222 
TABS,ioos:station:wmo:42043:1,2013-05-06T08:30:00Z,28.9818,-94.9186,1017.63,11111222 
TABS,ioos:station:wmo:42043:1,2013-05-06T09:00:00Z,28.9818,-94.9186,1017.75,11111222 
TABS,ioos:station:wmo:42043:1,2013-05-06T09:30:00Z,28.9818,-94.9186,1017.87,11111222 
TABS,ioos:station:wmo:42043:1,2013-05-06T10:00:00Z,28.9818,-94.9186,1017.85,11111222 
TABS,ioos:station:wmo:42043:1,2013-05-06T10:30:00Z,28.9818,-94.9186,1017.89,11111222 
TABS,ioos:station:wmo:42043:1,2013-05-06T11:00:00Z,28.9818,-94.9186,1018.09,11111222 
TABS,ioos:station:wmo:42043:1,2013-05-06T11:30:00Z,28.9818,-94.9186,1018.28,11111222 
TABS,ioos:station:wmo:42043:1,2013-05-06T12:00:00Z,28.9818,-94.9186,1018.5,11111222 
TABS,ioos:station:wmo:42043:1,2013-05-06T12:30:00Z,28.9818,-94.9186,1018.56,11111222 
TABS,ioos:station:wmo:42043:1,2013-05-06T13:00:00Z,28.9818,-94.9186,1018.7,11111222 
TABS,ioos:station:wmo:42043:1,2013-05-06T13:30:00Z,28.9818,-94.9186,1018.99,11111222 
TABS,ioos:station:wmo:42043:1,2013-05-06T14:00:00Z,28.9818,-94.9186,1019.24,11111222 
TABS,ioos:station:wmo:42043:1,2013-05-06T14:30:00Z,28.9818,-94.9186,1019.56,11111222 
TABS,ioos:station:wmo:42043:1,2013-05-06T15:00:00Z,28.9818,-94.9186,1019.51,11111222 
TABS,ioos:station:wmo:42043:1,2013-05-06T15:30:00Z,28.9818,-94.9186,1019.67,11111222 
TABS,ioos:station:wmo:42043:1,2013-05-06T16:00:00Z,28.9818,-94.9186,1019.76,11111222 
TABS,ioos:station:wmo:42043:1,2013-05-06T16:30:00Z,28.9818,-94.9186,1019.78,11111222 
TABS,ioos:station:wmo:42043:1,2013-05-06T17:00:00Z,28.9818,-94.9186,1019.74,11111222 
TABS,ioos:station:wmo:42043:1,2013-05-06T17:30:00Z,28.9818,-94.9186,1019.55,11111222 
TABS,ioos:station:wmo:42043:1,2013-05-06T18:00:00Z,28.9818,-94.9186,1019.14,11111222 
TABS,ioos:station:wmo:42043:1,2013-05-06T18:30:00Z,28.9818,-94.9186,1018.85,11111222 
TABS,ioos:station:wmo:42043:1,2013-05-06T19:00:00Z,28.9818,-94.9186,1018.42,11111222 
TABS,ioos:station:wmo:42043:1,2013-05-06T19:30:00Z,28.9818,-94.9186,1018.06,11111222 
TABS,ioos:station:wmo:42043:1,2013-05-06T20:00:00Z,28.9818,-94.9186,1017.36,11111222 
TABS,ioos:station:wmo:42043:1,2013-05-06T20:30:00Z,28.9818,-94.9186,1016.67,11111222 
TABS,ioos:station:wmo:42043:1,2013-05-06T21:00:00Z,28.9818,-94.9186,1015.91,11111222 
TABS,ioos:station:wmo:42043:1,2013-05-06T21:30:00Z,28.9818,-94.9186,1015.96,11111222 
TABS,ioos:station:wmo:42043:1,2013-05-06T22:00:00Z,28.9818,-94.9186,1015.87,11111222 
TABS,ioos:station:wmo:42043:1,2013-05-06T22:30:00Z,28.9818,-94.9186,1016.0,11111222 
TABS,ioos:station:wmo:42043:1,2013-05-06T23:00:00Z,28.9818,-94.9186,1015.94,11111222 
TABS,ioos:station:wmo:42043:1,2013-05-06T23:30:00Z,28.9818,-94.9186,1016.0,11111222 
TABS,ioos:station:wmo:42043:1,2013-05-07T00:00:00Z,28.9818,-94.9186,1015.93,11111222 
TABS,ioos:station:wmo:42043:1,2013-05-07T00:30:00Z,28.9818,-94.9186,1016.18,11111222 